Location: Maddington
(51.2000°N, 1.9167°W)
Time: 04:13:01
(UTC+00:00)

Cosmos 1975 - Pass Details

Date: 18 September 2020
Orbit: 541 x 562 km, 82.5° (Epoch: 20 October)

Event Time Altitude Azimuth Distance (km) Brightness Sun altitude
Rises 18:44:38 0° 179° (S) 2,744 6.3 -5.6°
Reaches altitude 10° 18:46:49 10° 176° (S) 1,852 5.4 -5.9°
Maximum altitude 18:50:50 61° 97° (E) 643 2.9 -6.5°
Drops below altitude 10° 18:54:53 10° 17° (NNE) 1,862 5.5 -7.2°
Sets 18:57:05 0° 14° (NNE) 2,760 6.4 -7.5°
